Geneva, Switzerland

11:12 AM CEST on May 25, 2017 (GMT +0200)
Cointrin

Weather History for LSGG - February, 2014

Change the Weather History Date:

Friday, February 28, 2014

  Actual Average Record
Temperature  
Mean Temperature 40 °F -  
Max Temperature 44 °F 49 °F 57 °F (2007)
Min Temperature 35 °F 33 °F 19 °F (2005)
Degree Days  
Heating Degree Days 26    
Moisture  
Dew Point 36 °F    
Average Humidity 84    
Maximum Humidity 93    
Minimum Humidity 61    
Precipitation  
Precipitation 0.20 in 0.10 in - ()
Sea Level Pressure  
Sea Level Pressure 29.75 in    
Wind  
Wind Speed 9 mph ()    
Max Wind Speed 18 mph    
Max Gust Speed 24 mph    
Visibility 6.7 miles    
Events Rain    
Averages and records for this station are not official NWS values.
T = Trace of Precipitation, MM = Missing Value Source: Averaged Metar Reports

Daily Weather History Graph

Daily Weather History Graph

Search for Another Location

Airport or City:

Trip Planner

Search our weather history database for the weather conditions in past years. The results will help you decide how hot, cold, wet, or windy it might be!

Date:

Astronomy

Feb. 28, 2014 Rise Set
Actual Time 7:16 AM CET 6:19 PM CET
Civil Twilight 6:46 AM CET 6:50 PM CET
Nautical Twilight 6:11 AM CET 7:24 PM CET
Astronomical Twilight 5:37 AM CET 7:59 PM CET
Moon 6:22 AM CET (2/28) 5:37 PM CET (2/28)
Length of Visible Light 12h 03m
Length of Day
11h 03m
Waning Crescent, 1% of the Moon is Illuminated
Feb 28
Waning Crescent
Mar 1
New
Mar 8
First Quarter
Mar 16
Full
Mar 24
Last Quarter

Hourly Weather History & Observations

Time (CET) Temp. Windchill Dew Point Humidity Pressure Visibility Wind Dir Wind Speed Gust Speed Precip Events Conditions
12:00 AM 40 °F - 34 °F 72% 30.05 in - SSW 11.5 mph - -  
12:20 AM 41.0 °F 35.2 °F 35.6 °F 81% 30.01 in 6.2 mi SSW 9.2 mph - N/A   Scattered Clouds
12:50 AM 41.0 °F 35.2 °F 35.6 °F 81% 30.01 in 6.2 mi SW 9.2 mph - N/A Rain Light Rain Showers
1:00 AM 40 °F - 36 °F 79% 30.04 in 7 mi SW 10.4 mph - - Rain Light Rain Showers
1:20 AM 41.0 °F 33.9 °F 37.4 °F 87% 30.01 in 6.2 mi SW 12.7 mph - N/A Rain Light Rain Showers
1:50 AM 39.2 °F 34.2 °F 37.4 °F 93% 29.98 in 6.2 mi WSW 6.9 mph - N/A Rain Light Rain Showers
2:00 AM 40 °F - 36 °F 82% 30.03 in - West 6.9 mph - -  
2:50 AM 39.2 °F 32.5 °F 37.4 °F 93% 29.95 in 6.2 mi WSW 10.4 mph - N/A Rain Light Rain
3:00 AM 40 °F - 37 °F 84% 30.00 in - WSW 11.5 mph - -  
3:20 AM 39.2 °F 32.5 °F 37.4 °F 93% 29.95 in 6.2 mi SW 10.4 mph - N/A Rain Light Rain Showers
3:50 AM 39.2 °F 32.0 °F 37.4 °F 93% 29.92 in 6.2 mi SW 11.5 mph - N/A Rain Light Rain Showers
4:00 AM 39 °F - 36 °F 86% 29.97 in 7 mi SW 11.5 mph - - Rain Light Rain Showers
4:20 AM 39.2 °F 32.5 °F 37.4 °F 93% 29.92 in 6.2 mi SW 10.4 mph - N/A   Mostly Cloudy
4:50 AM 39.2 °F 34.2 °F 37.4 °F 93% 29.89 in 6.2 mi SW 6.9 mph - N/A   Mostly Cloudy
5:00 AM 39 °F - 36 °F 84% 29.94 in - SW 8.1 mph - -  
5:20 AM 39.2 °F 34.2 °F 37.4 °F 93% 29.89 in 6.2 mi SSW 6.9 mph - N/A   Mostly Cloudy
5:50 AM 39.2 °F 32.5 °F 37.4 °F 93% 29.89 in 6.2 mi South 10.4 mph - N/A   Mostly Cloudy
6:00 AM 40 °F - 35 °F 75% 29.91 in - SSW 13.8 mph - -  
6:20 AM 39.2 °F 31.6 °F 35.6 °F 87% 29.86 in 6.2 mi SSW 12.7 mph - N/A   Mostly Cloudy
6:50 AM 41.0 °F 34.7 °F 35.6 °F 81% 29.83 in 6.2 mi SSW 10.4 mph - N/A   Mostly Cloudy
7:00 AM 40 °F - 35 °F 77% 29.88 in 12 mi WSW 10.4 mph - -   Mostly Cloudy
7:20 AM 41.0 °F 34.7 °F 37.4 °F 87% 29.83 in 6.2 mi WSW 10.4 mph - N/A   Mostly Cloudy
7:50 AM 41.0 °F 35.8 °F 37.4 °F 87% 29.80 in 6.2 mi West 8.1 mph - N/A   Mostly Cloudy
8:00 AM 40 °F - 36 °F 79% 29.85 in - WSW 9.2 mph - -  
8:20 AM 41.0 °F 35.8 °F 37.4 °F 87% 29.80 in 6.2 mi WSW 8.1 mph - N/A   Mostly Cloudy
8:50 AM 41.0 °F 37.1 °F 37.4 °F 87% 29.77 in 6.2 mi West 5.8 mph - N/A   Mostly Cloudy
9:00 AM 41 °F - 35 °F 73% 29.81 in - WNW 4.6 mph - -  
9:20 AM 41.0 °F - 37.4 °F 87% 29.74 in 6.2 mi Variable 2.3 mph - N/A   Mostly Cloudy
9:50 AM 42.8 °F - 37.4 °F 81% 29.71 in 6.2 mi Variable 2.3 mph - N/A   Mostly Cloudy
10:00 AM 43 °F - 36 °F 67% 29.75 in 22 mi SW 3.5 mph - -   Partly Cloudy
10:20 AM 44.6 °F 39.7 °F 37.4 °F 76% 29.71 in 6.2 mi SW 9.2 mph - N/A   Mostly Cloudy
10:50 AM 44.6 °F 38.8 °F 35.6 °F 71% 29.68 in 6.2 mi SW 11.5 mph - N/A   Mostly Cloudy
11:00 AM 44 °F - 35 °F 61% 29.71 in - SW 13.8 mph - -  
11:20 AM 44.6 °F 38.1 °F 35.6 °F 71% 29.68 in 6.2 mi SW 13.8 mph - N/A Rain Light Rain
11:50 AM 42.8 °F 34.5 °F 37.4 °F 81% 29.65 in 5.6 mi SW 18.4 mph - N/A Rain Light Rain
12:00 PM 42 °F - 37 °F 75% 29.70 in - SW 15.0 mph - -  
12:20 PM 42.8 °F 37.0 °F 39.2 °F 87% 29.65 in 5.6 mi SW 10.4 mph - N/A Rain Light Rain
12:50 PM 42.8 °F 39.3 °F 37.4 °F 81% 29.62 in 6.2 mi West 5.8 mph - N/A Rain Light Rain
1:00 PM 42 °F - 38 °F 79% 29.66 in 7 mi West 5.8 mph - - Rain Light Rain
1:20 PM 41.0 °F 38.0 °F 39.2 °F 93% 29.62 in 5.6 mi West 4.6 mph - N/A Rain Light Rain
1:50 PM 42.8 °F 36.2 °F 37.4 °F 81% 29.59 in 5.0 mi SSW 12.7 mph 24.2 mph N/A Rain Rain
2:00 PM 41 °F - 37 °F 82% 29.64 in - SSW 12.7 mph - -  
2:20 PM 41.0 °F 33.5 °F 37.4 °F 87% 29.59 in 4.3 mi SW 13.8 mph - N/A Rain Rain
2:50 PM 41.0 °F 33.9 °F 37.4 °F 87% 29.59 in 3.7 mi SW 12.7 mph - N/A Rain Rain
3:00 PM 40 °F - 37 °F 83% 29.64 in - SW 11.5 mph - -  
3:20 PM 39.2 °F 31.6 °F 37.4 °F 93% 29.59 in 4.3 mi SW 12.7 mph - N/A Rain Light Rain
3:50 PM 39.2 °F 33.6 °F 37.4 °F 93% 29.59 in 6.2 mi WSW 8.1 mph - N/A Rain Light Rain
4:00 PM 40 °F - 36 °F 82% 29.65 in 6 mi West 8.1 mph - - Rain Light Rain
4:20 PM 39.2 °F 33.0 °F 37.4 °F 93% 29.62 in 6.2 mi SW 9.2 mph - N/A Rain Light Rain
4:50 PM 39.2 °F 31.2 °F 35.6 °F 87% 29.59 in 6.2 mi SSW 13.8 mph - N/A   Mostly Cloudy
5:00 PM 40 °F - 35 °F 76% 29.65 in - SSW 15.0 mph - -  
5:20 PM 39.2 °F 32.5 °F 35.6 °F 87% 29.62 in 6.2 mi South 10.4 mph - N/A   Mostly Cloudy
5:50 PM 39.2 °F 32.0 °F 35.6 °F 87% 29.62 in 6.2 mi South 11.5 mph - N/A   Mostly Cloudy
6:00 PM 40 °F - 34 °F 70% 29.67 in - South 11.5 mph - -  
6:20 PM 39.2 °F 33.0 °F 33.8 °F 81% 29.62 in 6.2 mi South 9.2 mph - N/A   Mostly Cloudy
6:50 PM 39.2 °F 33.0 °F 33.8 °F 81% 29.62 in 6.2 mi SSW 9.2 mph - N/A   Mostly Cloudy
7:00 PM 39 °F - 32 °F 69% 29.68 in 19 mi SSW 10.4 mph - -   Partly Cloudy
7:20 PM 39.2 °F 33.6 °F 33.8 °F 81% 29.62 in 6.2 mi SSW 8.1 mph - N/A   Mostly Cloudy
7:50 PM 39.2 °F 35.9 °F 33.8 °F 81% 29.65 in 6.2 mi WSW 4.6 mph - N/A   Mostly Cloudy
8:00 PM 38 °F - 33 °F 76% 29.69 in - West 3.5 mph - -  
8:20 PM 37.4 °F - 33.8 °F 87% 29.65 in 6.2 mi Variable 1.2 mph - N/A   Mostly Cloudy
8:50 PM 37.4 °F - 33.8 °F 87% 29.62 in 6.2 mi Calm Calm - N/A   Mostly Cloudy
9:00 PM 36 °F - 33 °F 87% 29.69 in - NNW 1.2 mph - -  
9:20 PM 35.6 °F - 33.8 °F 93% 29.65 in 6.2 mi Variable 1.2 mph - N/A   Mostly Cloudy
9:50 PM 37.4 °F - 33.8 °F 87% 29.65 in 6.2 mi Variable 1.2 mph - N/A   Scattered Clouds
10:00 PM 36 °F - 33 °F 87% 29.69 in 19 mi SSW 2.3 mph - -   Scattered Clouds
10:20 PM 35.6 °F 32.8 °F 33.8 °F 93% 29.65 in 6.2 mi Variable 3.5 mph - N/A   Scattered Clouds
10:50 PM 35.6 °F 30.7 °F 33.8 °F 93% 29.62 in 6.2 mi SSW 5.8 mph - N/A   Mostly Cloudy
11:00 PM 36 °F - 32 °F 81% 29.69 in - WSW 5.8 mph - -  
11:20 PM 37.4 °F 33.8 °F 33.8 °F 87% 29.62 in 6.2 mi SSW 4.6 mph - N/A   Mostly Cloudy
11:50 PM 35.6 °F 30.7 °F 33.8 °F 93% 29.62 in 6.2 mi SSW 5.8 mph - N/A   Mostly Cloudy